When you browse on this site, cookies collect data to enhance your experience and personalize the content and advertising you see.
Visit our Privacy Policy to learn more. By continuing to use the site, you agree to this use of cookies and data.
  • In Romania
  • List of Countries
  • For 7 days
  • Water Temperature
  • Weather Map
  • Weather Widgets
  • user-avatar
    Login

    Hourly Weather Passo Fundo

    Today, 19 September, Thursday

    Time Temperature Precipitation Wind Pressure Humidity
    00:00 +13°C° 0 mm 2 mps 701 mmHg 88%
    01:00 +13°C° 0 mm 2 mps 701 mmHg 89%
    02:00 +13°C° 0 mm 2 mps 700 mmHg 89%
    03:00 +13°C° 0 mm 2 mps 700 mmHg 90%
    04:00 +13°C° 0 mm 2 mps 700 mmHg 92%
    05:00 +13°C° 0 mm 2 mps 700 mmHg 93%
    06:00 +13°C° 0 mm 2 mps 699 mmHg 95%
    07:00 +14°C° 0 mm 3 mps 700 mmHg 92%
    08:00 +17°C° 0 mm 3 mps 700 mmHg 88%
    09:00 +19°C° 0 mm 3 mps 700 mmHg 85%
    10:00 +20°C° 0 mm 3 mps 700 mmHg 81%
    11:00 +22°C° 0 mm 4 mps 701 mmHg 76%
    12:00 +25°C° 0 mm 4 mps 701 mmHg 71%
    13:00 +23°C° 0.3 mm 5 mps 700 mmHg 75%
    14:00 +22°C° 0.3 mm 5 mps 700 mmHg 80%
    15:00 +21°C° 0.3 mm 6 mps 700 mmHg 84%
    16:00 +20°C° 0.2 mm 5 mps 700 mmHg 86%
    17:00 +20°C° 0.2 mm 4 mps 700 mmHg 89%
    18:00 +19°C° 0.2 mm 3 mps 700 mmHg 91%
    19:00 +18°C° 0.1 mm 2 mps 701 mmHg 93%
    20:00 +19°C° 0.1 mm 1 mps 701 mmHg 94%
    21:00 +16°C° 0.1 mm 0 mps 702 mmHg 96%
    22:00 +18°C° 0.1 mm 1 mps 702 mmHg 96%
    23:00 +18°C° 0.1 mm 1 mps 702 mmHg 97%

    Tomorrow, 20 September, Friday

    Time Temperature Precipitation Wind Pressure Humidity
    00:00 +16°C° 0.1 mm 2 mps 702 mmHg 97%
    01:00 +16°C° 0 mm 2 mps 702 mmHg 97%
    02:00 +16°C° 0 mm 2 mps 702 mmHg 97%
    03:00 +16°C° 0 mm 2 mps 702 mmHg 97%
    04:00 +16°C° 0.1 mm 2 mps 702 mmHg 96%
    05:00 +16°C° 0.1 mm 2 mps 702 mmHg 96%
    06:00 +15°C° 0.1 mm 2 mps 703 mmHg 96%
    07:00 +16°C° 0.2 mm 3 mps 703 mmHg 94%
    08:00 +16°C° 0.2 mm 3 mps 704 mmHg 92%
    09:00 +15°C° 0.2 mm 4 mps 705 mmHg 90%
    10:00 +15°C° 0.4 mm 4 mps 705 mmHg 91%
    11:00 +14°C° 0.4 mm 4 mps 705 mmHg 92%
    12:00 +14°C° 0.4 mm 4 mps 705 mmHg 93%
    13:00 +14°C° 0.2 mm 4 mps 705 mmHg 91%
    14:00 +15°C° 0.2 mm 4 mps 705 mmHg 89%
    15:00 +15°C° 0.2 mm 4 mps 705 mmHg 87%
    16:00 +15°C° 0 mm 4 mps 705 mmHg 87%
    17:00 +14°C° 0 mm 5 mps 705 mmHg 88%
    18:00 +14°C° 0 mm 5 mps 705 mmHg 88%
    19:00 +13°C° 0.1 mm 5 mps 705 mmHg 89%
    20:00 +13°C° 0.1 mm 5 mps 706 mmHg 91%
    21:00 +12°C° 0.1 mm 4 mps 707 mmHg 92%
    22:00 +12°C° 0 mm 4 mps 707 mmHg 92%
    23:00 +12°C° 0 mm 4 mps 707 mmHg 92%

    Day after tomorrow, 21 September, Saturday

    Time Temperature Precipitation Wind Pressure Humidity
    00:00 +11°C° 0 mm 4 mps 707 mmHg 91%
    01:00 +11°C° 0 mm 4 mps 707 mmHg 91%
    02:00 +11°C° 0 mm 4 mps 707 mmHg 91%
    03:00 +11°C° 0 mm 4 mps 707 mmHg 90%
    04:00 +10°C° 0 mm 4 mps 707 mmHg 92%
    05:00 +10°C° 0 mm 3 mps 707 mmHg 95%
    06:00 +9°C° 0 mm 3 mps 707 mmHg 97%
    07:00 +10°C° 0 mm 3 mps 707 mmHg 93%
    08:00 +11°C° 0 mm 4 mps 708 mmHg 90%
    09:00 +12°C° 0 mm 4 mps 708 mmHg 87%
    10:00 +14°C° 0 mm 4 mps 708 mmHg 81%
    11:00 +17°C° 0 mm 3 mps 708 mmHg 76%
    12:00 +19°C° 0 mm 3 mps 708 mmHg 71%
    13:00 +19°C° 0 mm 3 mps 708 mmHg 69%
    14:00 +20°C° 0 mm 3 mps 708 mmHg 68%
    15:00 +20°C° 0 mm 3 mps 707 mmHg 67%
    16:00 +19°C° 0 mm 3 mps 707 mmHg 72%
    17:00 +17°C° 0 mm 3 mps 707 mmHg 77%
    18:00 +16°C° 0 mm 3 mps 707 mmHg 82%
    19:00 +14°C° 0 mm 3 mps 707 mmHg 85%
    20:00 +12°C° 0 mm 3 mps 708 mmHg 88%
    21:00 +10°C° 0 mm 3 mps 708 mmHg 90%
    22:00 +10°C° 0 mm 3 mps 708 mmHg 92%
    23:00 +9°C° 0 mm 3 mps 708 mmHg 94%

    22 September, Sunday

    Time Temperature Precipitation Wind Pressure Humidity
    00:00 +9°C° 0 mm 2 mps 709 mmHg 96%
    01:00 +9°C° 0 mm 3 mps 708 mmHg 96%
    02:00 +8°C° 0 mm 3 mps 708 mmHg 96%
    03:00 +8°C° 0 mm 3 mps 708 mmHg 97%
    04:00 +8°C° 0 mm 3 mps 709 mmHg 96%
    05:00 +8°C° 0 mm 3 mps 709 mmHg 95%
    06:00 +8°C° 0 mm 3 mps 709 mmHg 94%
    07:00 +10°C° 0 mm 3 mps 710 mmHg 84%
    08:00 +12°C° 0 mm 4 mps 711 mmHg 74%
    09:00 +13°C° 0 mm 4 mps 711 mmHg 64%
    10:00 +15°C° 0 mm 4 mps 711 mmHg 58%
    11:00 +17°C° 0 mm 4 mps 711 mmHg 52%
    12:00 +18°C° 0 mm 4 mps 712 mmHg 47%
    13:00 +19°C° 0 mm 4 mps 711 mmHg 48%
    14:00 +19°C° 0 mm 4 mps 711 mmHg 49%
    15:00 +19°C° 0 mm 5 mps 711 mmHg 50%
    16:00 +18°C° 0 mm 4 mps 710 mmHg 57%
    17:00 +15°C° 0 mm 4 mps 710 mmHg 63%
    18:00 +13°C° 0 mm 4 mps 710 mmHg 70%
    19:00 +12°C° 0 mm 4 mps 710 mmHg 73%
    20:00 +10°C° 0 mm 5 mps 710 mmHg 76%
    21:00 +9°C° 0 mm 5 mps 711 mmHg 79%
    22:00 +9°C° 0 mm 5 mps 711 mmHg 80%
    23:00 +8°C° 0 mm 5 mps 710 mmHg 81%

    23 September, Monday

    Time Temperature Precipitation Wind Pressure Humidity
    00:00 +8°C° 0 mm 6 mps 710 mmHg 81%
    01:00 +8°C° 0 mm 5 mps 710 mmHg 84%
    02:00 +8°C° 0 mm 5 mps 710 mmHg 87%
    03:00 +8°C° 0 mm 5 mps 710 mmHg 90%
    04:00 +8°C° 0 mm 5 mps 710 mmHg 87%
    05:00 +8°C° 0 mm 5 mps 709 mmHg 85%
    06:00 +7°C° 0 mm 6 mps 709 mmHg 83%
    07:00 +9°C° 0 mm 6 mps 710 mmHg 78%
    08:00 +10°C° 0 mm 6 mps 710 mmHg 73%
    09:00 +11°C° 0 mm 7 mps 710 mmHg 68%
    10:00 +14°C° 0 mm 6 mps 710 mmHg 66%
    11:00 +16°C° 0 mm 6 mps 710 mmHg 63%
    12:00 +19°C° 0 mm 6 mps 710 mmHg 61%
    13:00 +20°C° 0 mm 5 mps 709 mmHg 61%
    14:00 +20°C° 0 mm 5 mps 709 mmHg 60%
    15:00 +21°C° 0 mm 4 mps 708 mmHg 60%
    16:00 +20°C° 0 mm 4 mps 708 mmHg 65%
    17:00 +18°C° 0 mm 4 mps 708 mmHg 71%
    18:00 +17°C° 0 mm 4 mps 708 mmHg 76%
    19:00 +15°C° 0 mm 4 mps 708 mmHg 75%
    20:00 +14°C° 0 mm 4 mps 708 mmHg 75%
    21:00 +14°C° 0 mm 4 mps 708 mmHg 75%
    22:00 +13°C° 0.1 mm 5 mps 708 mmHg 78%
    23:00 +13°C° 0.1 mm 5 mps 708 mmHg 82%

    24 September, Tuesday

    Time Temperature Precipitation Wind Pressure Humidity
    00:00 +11°C° 0.1 mm 6 mps 708 mmHg 86%
    01:00 +12°C° 0 mm 5 mps 708 mmHg 88%
    02:00 +12°C° 0 mm 4 mps 708 mmHg 90%
    03:00 +12°C° 0 mm 4 mps 707 mmHg 92%
    04:00 +11°C° 0 mm 3 mps 707 mmHg 93%
    05:00 +11°C° 0 mm 3 mps 707 mmHg 93%
    06:00 +11°C° 0 mm 3 mps 707 mmHg 93%
    07:00 +14°C° 0 mm 2 mps 708 mmHg 89%
    08:00 +15°C° 0 mm 2 mps 708 mmHg 85%
    09:00 +17°C° 0 mm 2 mps 708 mmHg 81%
    10:00 +18°C° 0 mm 2 mps 708 mmHg 75%
    11:00 +20°C° 0 mm 3 mps 708 mmHg 68%
    12:00 +21°C° 0 mm 3 mps 708 mmHg 62%
    13:00 +22°C° 0 mm 3 mps 708 mmHg 59%
    14:00 +22°C° 0 mm 4 mps 708 mmHg 57%
    15:00 +22°C° 0 mm 4 mps 707 mmHg 55%
    16:00 +20°C° 0 mm 4 mps 707 mmHg 61%
    17:00 +19°C° 0 mm 4 mps 707 mmHg 68%
    18:00 +17°C° 0 mm 3 mps 707 mmHg 75%
    19:00 +15°C° 0 mm 4 mps 707 mmHg 79%
    20:00 +13°C° 0 mm 4 mps 708 mmHg 83%
    21:00 +12°C° 0 mm 4 mps 708 mmHg 87%
    22:00 +12°C° 0 mm 4 mps 708 mmHg 90%
    23:00 +11°C° 0 mm 3 mps 708 mmHg 92%
    Show more